Temp
-3 -3 -3 -3 -3 -3 -3 -3 -4 -4 -4 -4 -4 -4 -4 -4 -4 -5 -5 -5 -5 -5 -5 -5 -5 -5 -5 -6 -6 -6 -5 -5 -5 -5 -5 -5 -5 -5 -5 -5 -7 -6 -7 -7 -7
-3 -3 -3 -3 -3 -3 -4 -4 -4 -4 -4 -4 -4 -4 -4 -4 -4 -4 -5 -5 -5 -5 -5 -5 -5 -4 -4 -6 -6 -6 -4 -5 -5 -5 -6 -6 -6 -5 -5 -6 -6 -6 -7 -7 -7
-4 -4 -4 -4 -3 -4 -4 -4 -4 -4 -4 -4 -4 -4 -4 -4 -4 -4 -4 -5 -5 -5 -5 -5 -5 -5 -5 -8 -6 -6 -6 -5 -5 -5 -6 -7 -6 -6 -5 -6 -6 -6 -7 -7 -7
-4 -4 -4 -4 -4 -4 -4 -4 -4 -4 -4 -4 -4 -4 -4 -4 -4 -4 -4 -4 -5 -5 -5 -5 -5 -5 -6 -6 -6 -6 -6 -5 -5 -5 -5 -6 -6 -6 -5 -6 -6 -6 -6 -7 -7
-4 -4 -4 -4 -4 -4 -4 -4 -4 -4 -4 -4 -4 -4 -4 -4 -4 -4 -4 -5 -5 -5 -5 -6 -5 -5 -7 -7 -6 -5 -6 -5 -4 -4 -5 -6 -6 -4 -6 -6 -6 -6 -6 -6 -7
-5 -4 -4 -4 -4 -4 -4 -4 -4 -4 -4 -4 -4 -4 -4 -4 -4 -4 -5 -5 -5 -5 -5 -6 -6 -6 -7 -7 -6 -5 -5 -6 -5 -5 -6 -5 -6 -5 -6 -6 -6 -6 -6 -7 -7
-5 -5 -5 -4 -4 -4 -4 -4 -4 -5 -5 -5 -5 -5 -4 -4 -4 -5 -5 -5 -5 -5 -5 -6 -6 -6 -7 -7 -7 -6 -6 -6 -6 -5 -5 -6 -6 -6 -6 -5 -7 -6 -6 -6 -7
-5 -5 -5 -5 -5 -5 -4 -5 -5 -5 -5 -5 -5 -5 -5 -5 -5 -5 -5 -5 -5 -6 -6 -6 -7 -7 -7 -7 -7 -6 -6 -5 -6 -6 -6 -7 -6 -6 -7 -6 -6 -6 -6 -6 -7
-5 -5 -5 -5 -5 -5 -5 -5 -5 -5 -5 -5 -5 -5 -5 -5 -5 -5 -5 -5 -5 -6 -6 -6 -7 -7 -8 -7 -7 -7 -6 -7 -6 -6 -6 -7 -7 -5 -7 -7 -6 -6 -6 -6 -7
-5 -5 -5 -5 -5 -5 -5 -5 -5 -5 -5 -5 -5 -5 -5 -5 -5 -5 -5 -6 -6 -6 -6 -7 -7 -7 -8 -8 -8 -7 -7 -7 -7 -7 -6 -6 -7 -7 -6 -6 -6 -5 -6 -6 -7
-5 -5 -5 -5 -5 -5 -5 -5 -5 -6 -5 -5 -5 -5 -5 -6 -6 -5 -6 -6 -6 -6 -6 -7 -7 -7 -7 -7 -7 -8 -7 -6 -7 -7 -5 -6 -6 -7 -7 -7 -6 -6 -6 -6 -7
-6 -6 -6 -5 -5 -5 -5 -5 -5 -5 -5 -6 -6 -5 -6 -6 -6 -6 -6 -6 -6 -6 -6 -7 -7 -9 -9 -8 -9 -8 -8 -9 -9 -7 -6 -7 -5 -7 -7 -7 -6 -7 -7 -7 -7
-6 -6 -6 -6 -6 -5 -5 -5 -5 -5 -5 -5 -5 -6 -6 -6 -6 -6 -6 -6 -6 -6 -7 -8 -10 -9 -10 -10 -10 -9 -9 -8 -7 -7 -8 -7 -7 -6 -6 -6 -7 -6 -7 -7 -7
-6 -6 -6 -6 -6 -6 -6 -6 -6 -6 -6 -5 -6 -6 -6 -6 -6 -6 -6 -6 -6 -7 -7 -9 -10 -10 -9 -9 -10 -9 -9 -9 -8 -7 -7 -8 -7 -8 -7 -6 -6 -6 -6 -6 -6
-6 -6 -6 -6 -6 -6 -6 -6 -6 -6 -6 -6 -6 -6 -6 -6 -6 -6 -6 -7 -7 -7 -8 -9 -8 -9 -10 -9 -10 -10 -8 -8 -9 -8 -7 -8 -8 -7 -6 -6 -7 -7 -7 -6 -6
-6 -6 -6 -7 -7 -7 -7 -7 -7 -7 -7 -8 -6 -7 -6 -7 -7 -7 -7 -7 -7 -7 -8 -10 -11 -9 -10 -10 -10 -10 -9 -8 -9 -9 -9 -8 -8 -7 -7 -8 -8 -8 -7 -7 -6
-7 -7 -7 -7 -7 -7 -7 -7 -7 -7 -8 -10 -8 -7 -7 -7 -7 -7 -7 -7 -7 -8 -9 -9 -10 -9 -9 -10 -9 -8 -10 -9 -8 -9 -8 -8 -9 -9 -8 -9 -8 -7 -7 -7 -6
-7 -7 -7 -7 -7 -7 -7 -7 -6 -7 -8 -9 -10 -8 -7 -7 -7 -7 -7 -7 -8 -9 -10 -10 -10 -8 -9 -9 -10 -9 -10 -9 -8 -8 -7 -8 -9 -8 -8 -8 -8 -8 -6 -6 -6
-7 -7 -7 -7 -7 -7 -7 -7 -7 -8 -9 -10 -9 -10 -9 -9 -10 -8 -7 -7 -8 -8 -10 -9 -9 -9 -9 -9 -10 -9 -9 -9 -8 -9 -9 -9 -9 -8 -8 -7 -8 -7 -6 -6 -6
-7 -7 -7 -8 -8 -8 -7 -7 -8 -8 -9 -10 -10 -10 -10 -10 -10 -10 -10 -8 -8 -9 -10 -9 -10 -9 -10 -9 -9 -10 -10 -9 -8 -8 -8 -8 -8 -9 -9 -8 -8 -7 -7 -8 -7
-7 -8 -8 -8 -8 -8 -8 -8 -9 -9 -9 -8 -10 -10 -10 -10 -10 -10 -10 -10 -9 -10 -10 -10 -9 -10 -10 -9 -9 -9 -8 -9 -9 -9 -9 -8 -9 -9 -8 -8 -8 -7 -7 -8 -8
-7 -8 -7 -8 -8 -8 -8 -9 -9 -9 -8 -9 -9 -9 -10 -10 -10 -10 -10 -10 -10 -10 -10 -9 -10 -9 -9 -10 -10 -10 -9 -9 -8 -9 -8 -9 -9 -9 -7 -8 -8 -7 -8 -9 -8
-8 -8 -7 -8 -8 -8 -8 -9 -9 -9 -9 -10 -10 -9 -10 -10 -10 -10 -10 -10 -10 -10 -10 -10 -9 -10 -9 -9 -10 -9 -9 -9 -9 -9 -8 -8 -8 -8 -8 -8 -8 -6 -7 -8 -7
-8 -8 -8 -8 -8 -8 -9 -9 -9 -10 -9 -9 -9 -9 -10 -10 -9 -10 -10 -10 -10 -10 -10 -10 -10 -10 -9 -9 -10 -10 -9 -8 -9 -9 -9 -9 -9 -8 -8 -7 -7 -7 -7 -7 -8
-9 -9 -9 -8 -8 -8 -9 -9 -9 -9 -10 -10 -9 -10 -9 -10 -10 -10 -9 -10 -11 -10 -10 -9 -10 -10 -10 -10 -9 -10 -10 -10 -10 -9 -9 -10 -9 -9 -8 -9 -7 -8 -7 -7 -7
-9 -9 -9 -9 -9 -8 -9 -10 -10 -10 -10 -10 -10 -10 -10 -10 -10 -10 -10 -10 -11 -11 -10 -10 -9 -10 -10 -10 -9 -10 -10 -10 -10 -10 -9 -10 -10 -8 -9 -8 -8 -7 -8 -8 -7
-9 -9 -9 -10 -10 -9 -9 -10 -9 -9 -11 -11 -11 -10 -11 -11 -11 -10 -11 -10 -10 -10 -11 -10 -9 -11 -10 -10 -9 -10 -10 -10 -10 -10 -10 -10 -10 -10 -9 -9 -8 -8 -9 -8 -8
Height
5881 5881 5881 5881 5881 5881 5881 5882 5882 5882 5882 5882 5881 5881 5880 5879 5879 5879 5880 5880 5880 5880 5880 5879 5879 5880 5880 5878 5878 5877 5876 5874 5871 5875 5874 5874 5879 5879 5880 5879 5877 5877 5876 5877 5876
5883 5882 5882 5882 5883 5883 5884 5884 5884 5884 5884 5883 5882 5882 5881 5880 5879 5879 5879 5879 5879 5879 5879 5879 5880 5879 5880 5879 5877 5877 5861 5872 5871 5869 5872 5875 5877 5879 5881 5880 5877 5877 5876 5877 5877
5884 5884 5884 5884 5884 5884 5885 5885 5886 5885 5885 5884 5883 5882 5881 5880 5880 5879 5879 5878 5878 5878 5879 5879 5879 5879 5879 5881 5878 5877 5876 5872 5873 5872 5872 5873 5876 5879 5880 5879 5877 5877 5878 5877 5878
5885 5885 5885 5885 5885 5886 5886 5886 5886 5886 5886 5885 5884 5883 5882 5881 5881 5878 5878 5877 5877 5877 5878 5879 5879 5879 5879 5882 5881 5879 5877 5876 5875 5872 5871 5872 5875 5878 5879 5879 5878 5877 5879 5879 5878
5886 5886 5886 5886 5886 5886 5886 5887 5887 5887 5886 5885 5885 5883 5882 5881 5880 5877 5877 5876 5875 5876 5877 5878 5878 5879 5881 5881 5882 5879 5877 5876 5875 5872 5870 5870 5874 5871 5878 5878 5878 5879 5880 5879 5879
5886 5886 5886 5886 5886 5887 5887 5887 5887 5887 5886 5885 5884 5883 5882 5881 5878 5877 5876 5875 5874 5874 5875 5876 5877 5879 5880 5882 5882 5880 5879 5877 5875 5874 5874 5872 5873 5875 5877 5876 5878 5879 5881 5880 5880
5886 5886 5886 5886 5887 5887 5886 5886 5886 5886 5885 5885 5884 5882 5881 5880 5878 5876 5874 5873 5873 5872 5873 5875 5877 5879 5877 5880 5876 5877 5877 5877 5876 5875 5875 5875 5876 5875 5876 5876 5878 5880 5881 5880 5882
5886 5886 5886 5886 5886 5886 5886 5886 5885 5885 5884 5884 5883 5882 5880 5878 5876 5875 5873 5872 5871 5871 5871 5874 5877 5876 5879 5878 5877 5881 5878 5877 5877 5877 5879 5878 5877 5877 5877 5876 5877 5879 5881 5882 5882
5885 5885 5885 5885 5885 5885 5885 5884 5884 5884 5883 5883 5882 5881 5879 5877 5875 5873 5872 5870 5870 5869 5870 5872 5876 5877 5878 5876 5877 5878 5878 5877 5875 5876 5877 5879 5877 5874 5871 5878 5880 5880 5881 5882 5883
5883 5883 5883 5883 5883 5883 5883 5883 5882 5882 5882 5881 5881 5880 5878 5876 5874 5871 5870 5869 5868 5868 5869 5870 5874 5876 5878 5877 5873 5870 5877 5877 5876 5873 5875 5876 5876 5879 5875 5878 5879 5879 5881 5881 5883
5881 5881 5881 5881 5881 5881 5881 5881 5881 5881 5880 5880 5879 5877 5875 5874 5872 5870 5868 5868 5867 5867 5868 5869 5873 5876 5870 5873 5878 5879 5879 5873 5878 5874 5876 5873 5881 5879 5875 5873 5877 5877 5877 5881 5881
5879 5879 5878 5878 5878 5878 5878 5878 5878 5878 5878 5877 5876 5875 5874 5872 5871 5869 5867 5867 5866 5866 5866 5868 5871 5873 5872 5874 5875 5880 5875 5878 5880 5877 5878 5874 5873 5868 5877 5875 5874 5876 5880 5881 5879
5877 5876 5876 5875 5875 5875 5875 5875 5874 5874 5874 5874 5873 5872 5872 5871 5869 5868 5866 5864 5864 5864 5865 5866 5873 5875 5876 5877 5877 5882 5884 5880 5877 5878 5877 5868 5875 5867 5878 5878 5875 5875 5877 5878 5879
5872 5872 5872 5872 5872 5872 5872 5871 5871 5870 5870 5871 5871 5870 5870 5868 5867 5866 5864 5863 5862 5862 5863 5865 5868 5871 5871 5873 5877 5882 5878 5878 5877 5876 5878 5877 5874 5872 5876 5878 5876 5874 5872 5874 5876
5866 5866 5866 5866 5866 5867 5868 5866 5866 5866 5866 5865 5867 5867 5866 5865 5865 5863 5862 5861 5860 5860 5862 5865 5866 5866 5868 5871 5874 5878 5874 5877 5877 5875 5877 5877 5872 5871 5873 5872 5870 5872 5873 5872 5877
5857 5858 5859 5859 5859 5860 5861 5861 5862 5864 5862 5861 5863 5863 5863 5862 5862 5861 5860 5859 5859 5859 5860 5862 5866 5864 5867 5869 5873 5875 5874 5874 5874 5876 5878 5874 5879 5870 5866 5865 5859 5870 5875 5875 5874
5849 5848 5849 5850 5851 5850 5852 5853 5856 5857 5861 5859 5855 5859 5859 5859 5859 5858 5858 5857 5857 5858 5860 5861 5863 5863 5865 5870 5870 5871 5873 5874 5874 5875 5876 5876 5877 5873 5870 5868 5857 5864 5874 5875 5874
5841 5841 5841 5842 5843 5842 5843 5845 5847 5853 5854 5859 5856 5852 5855 5855 5855 5856 5856 5855 5855 5856 5863 5864 5865 5864 5866 5867 5872 5871 5874 5870 5872 5867 5871 5871 5876 5870 5865 5864 5869 5866 5869 5871 5870
5833 5833 5833 5835 5836 5836 5837 5838 5843 5844 5848 5853 5856 5851 5850 5852 5855 5852 5853 5853 5854 5855 5862 5870 5869 5863 5864 5866 5869 5869 5876 5876 5872 5872 5873 5872 5875 5868 5870 5866 5864 5864 5864 5870 5873
5825 5825 5827 5827 5827 5828 5829 5834 5835 5837 5836 5841 5845 5850 5851 5852 5854 5854 5853 5853 5853 5855 5857 5864 5865 5863 5864 5864 5867 5867 5870 5875 5878 5878 5877 5876 5873 5866 5867 5867 5865 5863 5860 5858 5864
5817 5816 5821 5818 5819 5819 5822 5825 5826 5828 5827 5829 5833 5838 5844 5847 5852 5852 5853 5854 5851 5854 5855 5859 5864 5863 5865 5862 5864 5867 5868 5869 5873 5875 5871 5868 5870 5867 5869 5870 5865 5864 5857 5843 5865
5809 5808 5811 5809 5811 5811 5813 5815 5817 5818 5819 5821 5825 5828 5831 5837 5843 5847 5849 5852 5850 5850 5854 5855 5858 5860 5862 5862 5861 5865 5869 5871 5873 5874 5874 5866 5866 5864 5865 5868 5866 5863 5862 5862 5863
5801 5800 5797 5799 5801 5801 5802 5805 5807 5810 5811 5812 5816 5821 5826 5828 5832 5835 5841 5849 5847 5846 5850 5850 5852 5856 5855 5862 5860 5861 5864 5865 5867 5868 5870 5869 5864 5865 5863 5861 5862 5860 5861 5861 5861
5792 5791 5788 5789 5790 5791 5793 5795 5798 5801 5803 5805 5808 5811 5816 5820 5823 5828 5831 5840 5839 5842 5842 5844 5849 5852 5855 5849 5853 5857 5858 5861 5865 5869 5869 5855 5861 5859 5858 5857 5860 5857 5860 5859 5859
5780 5779 5777 5778 5780 5780 5782 5785 5786 5791 5794 5796 5799 5802 5807 5811 5815 5821 5826 5831 5833 5834 5838 5839 5842 5847 5852 5846 5846 5852 5857 5857 5859 5860 5861 5860 5856 5857 5853 5855 5856 5858 5857 5857 5857
5766 5768 5767 5767 5767 5769 5771 5774 5776 5780 5784 5788 5790 5794 5798 5800 5805 5811 5818 5824 5823 5826 5830 5834 5836 5839 5842 5840 5842 5846 5850 5852 5852 5854 5856 5859 5856 5846 5853 5854 5854 5856 5855 5855 5854
5753 5754 5754 5756 5755 5756 5759 5759 5762 5766 5771 5775 5778 5780 5786 5790 5793 5800 5802 5806 5812 5811 5821 5827 5830 5833 5836 5839 5837 5836 5845 5846 5847 5849 5852 5855 5855 5849 5850 5852 5852 5852 5852 5850 5850
Wind_Speed
10 10 11 11 13 13 13 14 15 14 13 12 10 7 4 1 1 3 2 2 1 1 1 2 3 4 6 7 7 4 7 5 10 14 21 18 14 9 4 3 5 2 2 3 3
11 11 10 9 9 10 12 12 12 11 11 10 10 9 7 7 4 3 3 3 2 2 1 2 1 3 3 8 10 19 17 9 10 5 8 8 14 12 8 7 4 3 3 2 4
9 10 10 10 8 8 8 9 9 9 9 9 10 10 10 9 5 7 5 4 3 4 3 2 2 1 2 5 9 8 9 8 13 10 8 11 18 16 8 8 1 2 4 2 3
6 7 8 9 9 7 7 7 7 7 8 8 9 10 10 11 8 8 6 5 4 6 5 4 2 3 4 7 10 9 4 6 8 13 13 14 19 16 8 5 4 3 4 2 1
3 4 5 6 7 6 6 6 5 5 7 7 9 11 13 12 12 10 8 6 6 6 6 6 5 2 8 10 8 6 6 10 10 4 7 12 21 7 10 12 9 6 5 3 2
2 2 2 2 3 4 4 3 3 3 5 6 9 12 14 13 13 11 9 6 7 8 8 7 7 5 1 9 4 5 3 7 10 5 2 11 18 18 15 12 8 8 7 5 3
0 0 1 2 2 1 1 1 0 2 4 6 9 12 14 14 13 11 8 7 8 9 9 9 8 8 15 12 9 7 7 5 8 8 9 9 15 18 22 10 11 10 8 6 4
3 3 2 2 3 3 3 3 4 4 4 6 8 11 13 15 14 11 8 7 9 10 10 9 8 11 12 6 8 4 3 8 7 7 6 8 10 13 11 12 14 11 10 7 3
7 7 6 5 5 5 5 6 6 5 5 6 7 10 11 14 15 13 8 8 9 11 10 9 8 10 7 6 14 9 9 9 5 7 7 6 11 11 17 13 14 10 9 7 4
9 9 9 8 7 7 7 7 7 6 5 5 7 10 12 14 15 13 9 9 10 11 10 9 9 9 3 9 21 8 5 4 11 4 4 2 14 7 1 8 12 11 10 8 6
10 10 11 10 9 10 9 9 9 7 7 6 7 10 13 14 15 14 9 8 9 10 9 10 8 10 17 28 17 12 3 7 11 14 2 10 8 4 6 10 13 20 10 9 9
9 8 9 9 9 10 11 11 11 11 10 9 9 11 12 13 14 13 9 8 9 10 11 10 7 16 19 7 6 10 15 10 12 16 13 18 8 7 5 7 7 11 14 19 13
13 13 13 13 12 12 12 12 13 14 13 12 11 12 12 13 13 13 9 8 8 10 11 10 2 11 10 13 16 5 11 19 14 13 13 10 14 6 7 8 4 7 12 17 11
19 18 18 18 18 17 17 17 16 17 17 19 14 13 12 12 11 11 10 8 7 9 11 12 18 15 18 14 11 4 19 15 21 15 7 16 15 21 15 9 9 5 12 12 10
27 26 25 24 24 23 22 21 20 19 19 25 17 14 13 13 12 11 12 8 7 8 11 10 12 18 13 13 16 10 19 19 19 13 11 10 18 15 15 16 7 5 9 18 14
33 34 33 32 31 30 28 26 25 22 19 21 21 15 16 13 12 12 11 8 7 9 10 14 15 13 12 8 11 13 7 4 5 2 7 5 10 17 24 32 13 3 3 10 19
26 29 30 31 31 32 31 31 30 28 13 14 26 18 16 15 14 10 10 8 5 6 5 8 10 8 11 10 9 12 5 9 3 7 12 12 5 18 26 25 10 14 9 8 9
26 25 24 22 21 23 23 25 26 23 23 8 16 23 16 14 14 11 9 7 7 15 3 3 9 6 3 11 8 1 8 25 19 8 4 13 11 19 22 28 27 24 15 11 3
27 26 27 25 25 25 26 25 19 15 18 11 22 20 16 12 13 14 10 7 9 14 15 14 9 21 6 13 12 13 7 12 8 14 6 6 9 27 21 24 20 14 16 11 10
31 29 27 29 30 31 32 24 21 20 26 27 20 21 19 16 18 16 15 10 10 13 19 12 16 17 9 12 16 14 14 7 7 6 10 13 15 19 21 13 23 16 11 14 8
32 32 28 30 30 31 28 24 24 25 30 30 35 24 21 22 21 21 16 16 12 16 21 17 11 14 13 12 11 10 10 15 11 11 11 17 13 12 17 13 21 16 16 11 8
31 32 29 33 34 32 29 27 27 30 33 31 28 33 32 24 24 24 19 16 17 18 20 22 14 14 9 14 13 14 7 8 7 9 12 16 7 21 18 21 20 18 13 17 13
29 30 36 32 33 34 32 29 28 29 30 32 29 29 34 35 33 28 23 17 20 18 19 18 25 18 17 12 13 15 19 15 13 13 13 11 23 26 20 23 23 18 11 14 15
36 34 35 32 34 34 35 34 30 29 30 31 35 36 34 39 38 39 25 25 19 24 22 25 21 17 21 27 18 15 13 21 13 12 11 10 19 17 20 20 11 18 10 12 12
36 37 40 37 32 34 35 35 35 32 31 32 36 37 35 40 41 38 36 30 23 32 36 26 27 24 19 20 12 10 8 11 14 23 19 17 15 21 16 16 8 15 17 15 14
38 37 39 39 39 35 32 32 34 32 33 34 37 37 38 41 42 42 37 36 26 24 31 29 27 33 23 33 21 23 16 15 17 14 28 11 13 21 16 20 27 27 23 20 20
38 37 37 39 41 42 38 38 41 40 37 40 40 42 42 40 41 38 47 49 46 32 24 31 28 29 28 19 18 17 16 18 20 15 18 16 18 28 30 29 31 27 23 25 24
Wind_Direction
84 82 83 97 107 101 97 97 98 90 80 73 66 63 53 33 297 282 290 297 338 7 345 22 61 84 76 83 31 47 260 272 269 219 228 204 209 200 275 274 255 300 343 295 256
83 82 88 100 110 110 106 100 94 86 69 57 48 44 33 19 11 341 307 285 275 271 287 271 293 106 86 84 269 298 349 340 296 307 272 217 207 208 267 256 245 328 338 276 228
87 84 83 90 106 117 115 103 94 79 59 46 42 37 27 18 8 356 339 308 274 254 245 252 244 88 77 353 350 329 349 339 302 300 292 236 207 217 233 254 203 300 298 259 259
97 88 86 89 96 109 116 109 96 72 51 40 31 26 19 7 349 345 336 318 280 254 231 225 226 217 76 39 294 324 336 330 293 297 266 244 214 210 205 237 238 235 260 221 253
116 104 95 90 95 106 116 112 92 61 37 29 24 16 12 6 347 337 328 314 283 254 230 216 221 205 132 201 250 264 354 326 334 299 279 208 205 171 196 191 226 238 234 193 221
150 151 132 114 103 108 119 118 98 53 21 7 6 7 3 359 346 339 325 308 274 252 235 217 214 137 315 320 298 293 330 347 338 355 325 177 172 188 206 146 225 223 210 198 189
83 247 200 195 188 164 171 196 247 341 351 351 354 359 358 355 343 331 321 296 272 255 240 215 201 180 146 170 351 331 319 311 348 358 25 199 183 199 205 204 207 220 209 219 193
277 279 264 242 239 239 247 258 273 290 315 329 340 353 355 351 345 332 312 291 266 253 248 233 199 211 228 216 159 257 330 302 337 341 329 285 223 233 218 213 208 206 213 211 165
269 272 274 265 253 249 257 258 262 272 288 312 330 344 345 346 347 338 307 282 260 252 245 231 200 202 192 176 203 220 252 339 320 314 331 352 356 328 192 183 229 210 217 211 194
266 265 269 270 262 262 265 264 264 262 279 297 318 334 338 346 348 342 314 279 263 255 241 235 200 201 170 286 275 312 135 317 290 305 263 286 86 17 33 245 211 223 223 207 207
269 268 269 270 270 269 266 262 259 261 263 286 319 332 338 341 342 347 319 284 263 251 237 229 201 140 218 227 277 305 44 41 296 279 265 322 349 357 315 295 300 213 222 217 205
274 274 275 274 273 272 270 264 260 260 260 284 310 320 331 329 335 343 318 284 259 236 232 219 205 154 268 274 274 256 334 312 276 283 265 264 277 145 278 294 291 243 244 238 239
272 273 273 273 273 273 275 274 272 271 270 276 296 303 315 321 325 339 321 288 257 236 224 215 246 206 216 248 256 287 236 262 264 290 283 322 294 204 267 244 273 246 247 257 234
268 268 270 272 273 271 274 276 276 277 277 272 285 286 298 305 310 327 325 291 257 228 220 220 184 234 232 225 211 235 228 262 288 275 295 317 320 293 308 319 276 279 282 296 263
268 267 267 269 271 271 270 271 272 275 278 283 283 289 291 298 308 317 320 293 258 218 212 216 231 232 240 211 186 239 262 253 254 249 254 325 336 323 293 269 223 234 280 284 249
268 268 268 270 270 271 270 270 271 271 285 279 279 284 286 283 286 290 310 290 258 204 203 161 253 243 226 207 208 216 264 183 233 294 272 293 281 287 295 302 177 44 308 273 276
275 272 268 266 267 265 265 263 264 265 262 257 286 279 275 275 275 275 299 280 247 207 198 225 241 233 193 224 230 196 149 259 244 224 244 241 342 282 279 297 331 320 273 254 287
272 271 271 266 260 258 260 264 263 264 251 236 266 277 264 267 268 265 277 272 228 122 244 333 262 330 300 162 240 30 177 253 275 3 230 140 262 284 310 308 305 289 271 260 260
277 274 264 263 259 258 266 269 272 252 203 219 254 255 250 233 237 276 268 279 197 178 189 234 275 269 272 198 222 207 236 290 309 319 330 343 266 281 296 313 321 297 284 268 269
281 278 270 263 264 266 269 273 261 245 213 205 214 233 234 243 235 233 262 276 243 192 169 171 260 253 229 256 218 204 214 177 255 287 207 223 248 255 281 309 319 306 255 231 240
282 279 271 266 263 265 268 266 255 247 245 239 217 202 233 212 237 242 233 250 256 214 191 177 207 204 230 259 223 219 224 191 187 245 219 237 219 264 271 313 312 307 287 68 259
278 277 275 268 266 266 265 265 253 243 247 244 240 231 205 207 210 236 238 233 250 204 226 209 198 259 245 251 251 197 234 221 228 265 233 308 303 278 298 308 307 295 279 275 260
279 274 273 269 268 265 261 260 258 252 242 243 235 234 223 204 204 212 227 222 249 256 206 231 181 218 215 222 226 233 220 218 224 254 212 212 269 276 293 298 303 289 283 266 268
273 275 272 267 264 263 264 263 255 252 247 241 234 234 224 224 214 205 210 195 220 225 221 220 201 211 235 212 196 238 263 221 229 239 262 252 241 276 293 296 291 288 298 293 280
269 267 267 270 260 259 257 258 256 249 251 244 240 236 236 223 223 224 216 192 238 238 246 228 198 193 240 272 194 201 200 221 227 210 222 265 269 263 239 251 275 297 295 295 290
268 267 265 265 262 262 257 254 253 251 244 243 243 241 237 233 230 219 218 207 213 231 245 234 213 196 217 240 229 224 223 238 244 242 213 243 268 273 259 235 260 285 288 282 284
272 268 263 259 261 256 260 257 255 247 234 234 233 232 230 238 233 225 222 213 204 212 220 239 222 210 218 247 260 202 251 250 251 241 219 219 245 259 257 258 269 279 274 280 280